Regional Weather Roundup
Issued by NWS

Home | Current Version | Previous Version | Graphics & Text | Print | Product List | Glossary On
Versions: 1 2 3 4 5 6 7 8 9 10 11 12 13 14 15 16 17 18 19 20 21 22 23 24 25 26 27 28 29 30 31 32 33 34 35 36 37 38 39 40 41 42 43 44 45 46 47 48 49 50
000
ASUS43 KMKX 290759
RWRWI

WISCONSIN REGIONAL WEATHER ROUNDUP
NATIONAL WEATHER SERVICE MILWAUKEE/SULLIVAN WI
200 AM CST THU JAN 29 2015

NOTE: "FAIR" INDICATES FEW OR NO CLOUDS BELOW 12,000 FEET WITH NO
SIGNIFICANT WEATHER AND/OR OBSTRUCTIONS TO VISIBILITY.

WIZ001-002-006>008-014>016-023>028-290900-
NORTHWEST WISCONSIN

CITY           SKY/WX    TMP DP  RH WIND       PRES   REMARKS
SUPERIOR ARPT  CLOUDY    30  28  91 W6        29.86R FOG     WCI  24
ASHLAND        CLOUDY    29  28  96 W3        29.83F FOG
HAYWARD        CLOUDY    28  26  92 VRB6      29.82S FOG     WCI  22
SIREN          CLOUDY    29  29  98 NW7       29.86S FOG     WCI  22
CUMBERLAND     CLOUDY    28  28 100 NW9       29.83S FOG     WCI  20
RICE LAKE      FOG       28  28  96 W6        29.85R VSB 1   WCI  22
CHETEK         CLOUDY    27  27  99 W3        29.84R FOG
LADYSMITH      CLOUDY    27  25  95 CALM      29.83S FOG
EAU CLAIRE     CLOUDY    28  25  88 NW6       29.83S FOG     WCI  22
MENOMONIE      CLOUDY    30  28  95 NW7       29.85R FOG     WCI  23
NEW RICHMOND   CLOUDY    30  30 100 NW8       29.87R FOG     WCI  22
OSCEOLA        CLOUDY    30  30 100 NW6       29.90R FOG     WCI  24
$$

WIZ003>005-009-010-017-018-290900-
NORTH CENTRAL WISCONSIN

CITY           SKY/WX    TMP DP  RH WIND       PRES   REMARKS
MANITOWISH WTR CLOUDY    25  23  91 NW3       29.77S FOG
ARBOR VITAE    CLOUDY    27  23  85 NW3       29.77S
WOODRUFF       CLOUDY    27  23  85 NW3       29.77S
RHINELANDER    LGT SNOW  25  22  88 W6        29.77S FOG     WCI  18
EAGLE RIVER    LGT SNOW  25  21  85 CALM      29.76S
LAND O LAKES   CLOUDY    26  23  87 CALM      29.76F
PHILLIPS       CLOUDY    25  23  93 CALM      29.78S FOG
TOMAHAWK       CLOUDY    25  23  91 CALM      29.78S FOG
MEDFORD        CLOUDY    25  24  96 W5        29.78S FOG     WCI  19
MERRILL        CLOUDY    26  26 100 CALM      29.78S FOG
$$

WIZ029-030-035-036-043>047-290900-
CENTRAL WISCONSIN

CITY           SKY/WX    TMP DP  RH WIND       PRES   REMARKS
WAUSAU         CLOUDY    26  24  92 CALM      29.77S FOG
MOSINEE        CLOUDY    27  27 100 CALM      29.78F FOG
MARSHFIELD     CLOUDY    27  25  92 CALM      29.78S FOG
STEVENS POINT  CLOUDY    24  23  94 CALM      29.80S FOG
WAUPACA        CLOUDY    31  24  74 CALM      29.80S
WAUTOMA        NOT AVBL
WISC RAPIDS    CLOUDY    27  24  89 CALM      29.80F FOG
CAMP DOUGLAS   FRZ RAIN  28  28 100 NW3       29.80R FOG
$$

WIZ011>013-019>022-031-037>040-048>050-290900-
NORTHEAST WISCONSIN

CITY           SKY/WX    TMP DP  RH WIND       PRES   REMARKS
ANTIGO         CLOUDY    24  24  98 SW3       29.77R FOG
SHAWANO        CLOUDY    32  25  74 CALM      29.80S
OCONTO         CLOUDY    31  26  81 MISG      29.80F
STURGEON BAY   CLOUDY    32  27  80 S8        29.82S WCI  25
GREEN BAY      CLOUDY    31  25  78 CALM      29.80F
MANITOWOC      NOT AVBL
APPLETON       CLOUDY    30  23  74 S3        29.79S
CLINTONVILLE   CLOUDY    30  25  80 CALM      29.80S
OSHKOSH        CLOUDY    31  26  82 CALM      29.78F HAZE
$$

WIZ032>034-041-042-053>061-290900-
SOUTHWEST WISCONSIN

CITY           SKY/WX    TMP DP  RH WIND       PRES   REMARKS
LA CROSSE      CLOUDY    32  28  85 NW6       29.82R WCI  26
SPARTA           N/A     29  29  99 N5        29.82S FOG     WCI  24
VIROQUA        CLOUDY    31  31 100 N9        29.77R WCI  22
BOSCOBEL       CLOUDY    34  29  82 N3        29.79R HAZE
PRAIRIE DU CHI CLOUDY    32  29  88 NW5       29.79R FOG     WCI  27
PLATTEVILLE    CLOUDY    32  30  93 N6        29.74S WCI  26
$$

WIZ056-057-062-063-064-067-068-290900-
SOUTH CENTRAL WISCONSIN

CITY           SKY/WX    TMP DP  RH WIND       PRES   REMARKS
REEDSBURG      CLOUDY    30  29  94 CALM      29.77S FOG
BARABOO/DELLS  CLOUDY    29  27  89 CALM      29.77S FOG
LONE ROCK      NOT AVBL
MINERAL POINT  MOCLDY    32  30  93 NE3       29.74S
MADISON        CLOUDY    32  26  78 N5        29.76S WCI  27
MIDDLETON      CLOUDY    33  28  84 N6        29.76S WCI  27
WATERTOWN      CLOUDY    31  26  81 CALM      29.76F
MONROE         MOCLDY    30  28  93 NE3       29.72F
JANESVILLE     PTCLDY    32  27  80 CALM      29.73F
$$

WIZ051-052-058>065-066-070>072-290900-
SOUTHEAST WISCONSIN

CITY           SKY/WX    TMP DP  RH WIND       PRES   REMARKS
MILWAUKEE      CLOUDY    33  24  69 SE3       29.77F
WAUKESHA       CLOUDY    30  25  80 CALM      29.77S
MILWAUKEE/TIMM CLOUDY    32  25  74 CALM      29.78F
RACINE         CLOUDY    33  26  75 S12       29.78F WCI  24
BURLINGTON     MOCLDY    32  25  75 S5        29.75F WCI  28
KENOSHA        CLOUDY    35  25  66 S8        29.75F WCI  29
FOND DU LAC    CLOUDY    31  26  82 CALM      29.78F
SHEBOYGAN      CLOUDY    32  26  78 S5        29.79F WCI  27
WEST BEND      CLOUDY    32  23  69 CALM      29.78S
JUNEAU         CLOUDY    30  26  83 NE3       29.78S
$$

LSZ147-162-290900-
LAKE SUPERIOR

STATION/POSITION TIME  TEMP    WIND        PRES    WAVE
                       AIR SEA DIR/SP/G            HT/PER
                 (UTC) (F)     (DEG/KT/KT) (MB)    (FT/S)
DEVILS ISLAND    0700   31     280/ 14/ 15 1010.7F
PORT WING        0700   31     270/ 10/ 13 1010.8
SAXON HARBOR     0700   29     210/  3/  6 1010.2S
$$

LMZ867-665-643>646-290900-
LAKE MICHIGAN

STATION/POSITION TIME  TEMP    WIND        PRES    WAVE
                       AIR SEA DIR/SP/G            HT/PER
                 (UTC) (F)     (DEG/KT/KT) (MB)    (FT/S)
NORTHPORT PIER   0713   32     160/  5/ 16 1010.2F
SISTER BAY       0713   33     190/ 13/ 16   N/A
KEWAUNEE LAKESHO 0700   33     190/ 12/ 15 1008.9F
SHEBOYGAN LAKESH 0700   34     180/ 18/ 20 1010.0F
PORT WASHINGTON  0740   34     190/  8/ 13 1009.8F
MILWAUKEE LAKESH 0700   34     160/ 10/ 11   N/A
KENOSHA   LAKESH 0700   33     170/ 12/ 14 1008.8F
$$

TC  - TEMPERATURE IN CELSIUS
VSB - VISIBILITY IN STATUTE MILES
WCI - WIND CHILL INDEX
HX  - HEAT INDEX



USA.gov is the U.S. government's official web portal to all federal, state and local government web resources and services.